STARLINK-1697

Last updated on Fri Nov 06 2020 00:02:03 GMT+0000 (Coordinated Universal Time)

1 46546U 20070Q 20310.83334491 -.01084625 00000-0 -20368-1 0 9993 2 46546 53.0000 293.1346 0001121 68.7664 266.8926 15.50864974 5277

Satellite not in orbit